STARLINK-32787, 62809

Orbit data source: Space-Track

STARLINK-32787, 62809 is a payload satellite owned by SpaceX/Seattle (US) in LEO that was launched on Fri, 24 Jan 2025 UTC via an FALCON 9 launch vehicle from the Air Force Western Test Range (AFWTR). Payload-class satellites include a variety of spacecraft equipped with specific instruments for various scientific and technological missions. These include communications satellites like Starlink; space stations such as the ISS; scientific satellites like the Hubble; Earth observation satellites from companies like Planet Labs, Umbra, and HawkEye 360; GPS; miniature CubeSats for education and research; and military/defense satellites.

Loading next visibility...
Identifier
62809, 2025-018D
Orbit
LEO
Last TLE update
9 hours ago
Origin
Manufacturer
SpaceX/Seattle
Mission
Operational Commercial Communications
Bus & Motor
STARLINK V2M, Unknown motor
Mass
730 kg wet, ~700 kg dry
Launch date (UTC)
2025-01-24 (5 months ago)
Launch vehicle
FALCON 9
Launch site
Air Force Western Test Range (AFWTR)
Object type
Payload
Rocket body
Debris
Shape & HBR
Box + 2 Pan, 29 m
Radar Cross Section
33.884 m², Large (>1 m²)

Expand to show TLE details & history

TLE from 9 hours ago
0 STARLINK-32787
1 62809U 25018D   25187.54164834  .00017277  00000-0  59398-3 0  9990
2 62809  53.1585  12.8198 0001208 108.5263 251.5869 15.30205781 25486
Epoch: 2025-07-06T12:59Z
TLE epoch observation values (Epoch: 2025-07-06T12:59:58.416Z)
Latitude
-0.00003°
Longitude
-106.93748°
Altitude
476.359 km
Speed
7.629 km/s
True Right ascension
00h 51m 16s
True Declination
0° 00' 00"
Sunlit
Object was in daylight at epoch
Visualization orbit readout
Latitude
-44.03999°
Longitude
-154.80617°
Altitude
490.806 km
Speed
7.619 km/s
Apparent Right ascension
21h 54m 10s
Apparent Declination
-41° 55' 38"
Sunlit
Object is in full shadow
Visualization observer readout
Local Sidereal Time
10:08:40
Azimuth
127.453° SE
Elevation
-86.602°
Doppler factor
1
Orbital elements
Apogee altitude
476.282 km
Perigee altitude
474.627 km
Semi-major axis
6,853.591 km
Eccentricity
0.00012
Inclination
53.1585°
RAAN
12.8198°
Arg. of periapsis
108.5263°
True anomaly
Unknown
Mean anomaly
251.5869°
Eccentric anomaly
Unknown
Mean motion
3.8253 °/min
Orbital period
94.11 mins
BSTAR
0.00059398
Loading maneuver chart data...
Loading SW <> Apogee altitude chart data...
Loading historical data...
Loading historical data...
Loading historical data...
Loading historical data...
Loading historical data...
Loading historical data...
Loading historical data...

STARLINK-32787 Visibility forecast

Observer location: undefined°, undefined°

Span
Click to sort rows by Start time (UTC) header in descending order
Start Az.
Max El. time (UTC)
Max El. Az.
Max El.
End time (UTC)
End Az.
5 mins2025-07-06 22:56:35.674Z283.938° WNW2025-07-06 22:59:35.674Z215.417° SW25.048°2025-07-06 23:01:35.674Z174.971° S
4 mins2025-07-07 14:15:35.674Z172.635° S2025-07-07 14:16:35.674Z145.888° SSE26.762°2025-07-07 14:19:35.674Z74.314° E
5 mins2025-07-07 15:52:35.674Z272.428° WNW2025-07-07 15:54:35.674Z318.781° NNW28.271°2025-07-07 15:57:35.674Z29.894° NE
5 mins2025-07-07 20:49:35.674Z336.888° NNW2025-07-07 20:51:35.674Z23.983° NE27.28°2025-07-07 20:54:35.674Z91.117° ESE
|